{"data":{"norad_id":52671,"intl_designator":"2022-053R","name":"STARLINK-4071","alt_names":[],"object_type":"PAYLOAD","status":"ACTIVE","operator":null,"country":"US","launch_date":"2022-05-18","launch_site_code":"AFETR","launch_vehicle":null,"mission":null,"orbit_class":"UNKNOWN","rcs_meters":null,"size_class":null,"mass_kg":null,"dimensions":null,"purposes":["comms"],"wikipedia_slug":null,"has_3d_model":false,"image_url":null,"decayed_at":null,"tle_current":{"epoch":"2026-09-19T23:48:09.156096Z","epoch_age_seconds":110349,"freshness":"FRESH","line1":"1 52671U 22053R   26262.99177264  .00002671  00000+0  18596-3 0  9993","line2":"2 52671  53.1613   1.2069 0001301  93.8953 266.2188 15.08812845240373","mean_motion":15.08812845,"eccentricity":0.0001301,"inclination_deg":53.1613,"raan_deg":1.2069,"arg_perigee_deg":93.8953,"mean_anomaly_deg":266.2188,"bstar":0.00018596,"rev_number":24037,"period_min":95.439272324063,"perigee_km":538.92636514312,"apogee_km":540.72641921776,"semimajor_km":6917.9633921804,"source":"CELESTRAK","updated_at":"2026-09-20T09:00:40.103154Z"}}}